#timestamp,LO_Frequency,Hit,StdDev 
1634047215.3,286046999.3,N
1634047235.1,286046996.8,P
1634047255.9,286046997.1,N
1634047275.7,286047002.7,N
1634047325.6,286047004.4,E
1634047335.5,286047000.5,N
1634047355.3,286046997.0,P
1634047375.2,286046995.5,N
1634047395.0,286046996.2,N
1634047395.9,286046996.2,N
1634047415.8,286046995.5,N
1634047435.6,286046995.7,N
1634047455.4,286046995.3,N
1634047475.3,286046995.5,N
1634047495.1,286046997.6,N
1634047515.8,286046997.9,N
1634047535.7,286046997.9,N
1634047555.5,286046995.7,N
1634047575.4,286046995.2,Y
1634047595.2,286046998.8,P
1634047615.0,286046999.5,N
1634047615.9,286046999.5,N
1634047635.8,286046996.5,Y
1634047655.6,286046998.2,P
1634047675.5,286047000.6,N
1634047695.3,286047000.5,N
1634047715.1,286047000.3,N
1634047735.9,286047000.9,N
1634047755.7,286046999.1,N
1634047775.6,286046999.5,N
1634047795.4,286046998.8,N
1634047815.2,286046998.5,N
1634047835.1,286046998.3,N
1634047836.0,286046998.3,N
1634047855.8,286046998.6,N
1634047875.6,286046998.6,N
1634047895.5,286046999.2,N
1634047915.3,286046999.3,N
1634047935.2,286046998.8,N
1634047955.9,286046998.7,N
1634047975.7,286047000.8,N
1634047995.6,286046998.4,N
1634048015.4,286046998.7,N
1634048035.3,286046998.4,N
1634048055.1,286046998.4,N
1634048056.0,286046998.4,N
1634048075.8,286046999.3,N
1634048095.7,286046998.6,N
1634048115.5,286046998.4,N
1634048135.4,286046996.9,Y
1634048155.2,286046998.2,P
1634048175.0,286046999.2,N
1634048175.9,286046999.2,N
1634048195.8,286046996.5,Y
1634048215.6,286047001.0,P
1634048235.5,286047001.1,N
1634048255.3,286046998.4,N
1634048275.1,286047001.1,N
1634048295.9,286046998.5,N
1634048315.7,286047000.4,N
1634048335.5,286047000.3,N
1634048355.4,286047000.9,N
1634048375.2,286047000.8,N
1634048395.1,286047000.6,N
1634048396.0,286047000.6,N
1634048415.8,286047000.4,N
1634048435.6,286047000.0,N
1634048455.5,286047000.4,N
1634048475.3,286047000.9,N
1634048495.1,286047001.0,N
1634048515.9,286046999.0,N
1634048535.7,286046998.1,N
1634048555.6,286046998.8,N
1634048575.4,286046998.3,N
1634048595.2,286046999.9,N
1634048615.1,286047000.1,N
1634048616.0,286047000.1,N
1634048635.8,286047000.1,N
1634048655.6,286047000.3,N
1634048675.5,286047000.8,N
1634048695.3,286046998.5,N
1634048715.2,286047001.1,N
1634048735.0,286046998.4,N
1634048735.9,286046998.4,N
1634048755.7,286046998.4,N
1634048775.6,286046998.2,N
1634048795.4,286046999.4,N
1634048815.3,286046999.1,N
1634048835.1,286046996.9,Y
1634048855.8,286046998.3,P
1634048875.7,286046998.1,N
1634048895.5,286047000.8,N
1634048915.4,286047000.5,N
1634048935.2,286047000.5,N
1634048955.0,286046998.9,N
1634048955.9,286046998.9,N
1634048975.8,286046999.5,N
1634048995.6,286046997.0,Y
1634049015.4,286047001.1,P
1634049035.3,286046999.4,N
1634049055.1,286046998.9,N
1634049075.9,286046998.1,N
1634049095.7,286047001.1,N
1634049115.5,286046999.0,N
1634049135.4,286046998.4,N
1634049155.2,286047000.7,N
1634049175.1,286047000.4,N
1634049176.0,286047000.4,N
1634049195.8,286046998.7,N
1634049215.6,286047000.4,N
1634049235.5,286047000.5,N
1634049255.3,286047000.3,N
1634049275.2,286047000.3,N
1634049295.9,286047000.2,N
1634049315.7,286046999.7,N
1634049335.6,286046999.9,N
1634049355.4,286047000.3,N
1634049375.2,286047000.6,N
1634049395.1,286047000.5,N
1634049396.0,286047000.5,N
1634049415.8,286046998.2,N
1634049435.7,286047000.8,N
1634049455.5,286047000.5,N
1634049475.3,286047000.8,N
1634049495.2,286047000.2,N
1634049515.0,286046999.9,N
1634049515.9,286046999.9,N
1634049535.8,286047000.0,N
1634049555.6,286047000.9,N
1634049575.4,286047000.2,N
1634049595.3,286047002.8,Y
1634049615.1,286047000.3,P
1634049635.9,286047001.0,P
1634049655.7,286047000.4,N
1634049675.5,286047000.4,N
1634049695.4,286047000.5,N
1634049715.2,286047001.0,Y
1634049735.1,286046999.0,P
1634049736.0,286046999.0,N
1634049755.8,286046998.6,N
1634049775.6,286046999.3,N
1634049795.5,286046996.9,Y
1634049815.3,286046998.9,P
1634049835.2,286046999.3,P
1634049855.9,286046998.3,P
1634049875.7,286046998.3,Y
1634049895.6,286047000.4,P
1634049915.4,286047000.8,N
1634049935.3,286047000.4,N
1634049955.1,286047000.2,N
1634049956.0,286047000.2,N
1634049975.8,286047000.5,N
1634049995.7,286046999.9,N
1634050015.5,286047001.6,N
1634050035.3,286047001.8,N
1634050055.2,286047001.8,N
1634050075.0,286047002.0,N
1634050075.9,286047002.0,N
1634050095.8,286047002.2,N
1634050115.6,286047002.8,N
1634050135.4,286047002.1,N
1634050155.3,286047002.0,N
1634050175.1,286047001.5,N
1634050195.8,286047002.6,N
1634050215.7,286047001.6,N
1634050235.5,286047004.3,Y
1634050255.4,286047002.5,P
1634050275.2,286047002.8,P
1634050295.7,286047001.6,N
1634050315.5,286047001.9,N
1634050335.4,286047001.6,N
1634050355.2,286047001.8,Y
1634050375.0,286047000.0,P
1634050375.9,286047000.0,N
1634050395.8,286047000.1,N
1634050415.6,286047000.2,N
1634050435.5,286047002.8,Y
1634050455.3,286047000.8,P
1634050475.1,286047000.0,N
1634050495.9,286047000.0,N
1634050515.7,286047000.4,N
1634050535.6,286047000.8,N
1634050555.4,286046998.6,Y
1634050575.2,286046998.3,P
1634050595.1,286046999.4,N
1634050596.0,286046999.4,N
1634050615.8,286046999.3,N
1634050635.7,286046998.7,N
1634050655.5,286046998.3,N
1634050675.3,286046999.4,N
1634050695.2,286047000.5,N
1634050715.0,286047000.9,N
1634050715.9,286047000.9,N
1634050735.8,286046998.1,N
1634050755.6,286047001.0,N
1634050775.4,286046998.1,N
1634050795.3,286047001.1,N
